TimeEDT,TemperatureF,Dew PointF,Humidity,Sea Level PressureIn,VisibilityMPH,Wind Direction,Wind SpeedMPH,Gust SpeedMPH,PrecipitationIn,Events,Conditions,WindDirDegrees,DateUTC
12:15 AM,48.2,44.6,87,29.83,6.0,North,19.6,-,N/A,,Overcast,360,2013-05-25 04:15:00
12:35 AM,48.2,46.4,93,29.83,4.0,North,16.1,26.5,0.01,,Overcast,10,2013-05-25 04:35:00
12:55 AM,48.2,44.6,87,29.82,5.0,North,15.0,23.0,0.02,,Overcast,10,2013-05-25 04:55:00
1:15 AM,48.2,46.4,93,29.81,7.0,North,18.4,23.0,N/A,,Overcast,10,2013-05-25 05:15:00
1:35 AM,48.2,44.6,87,29.81,5.0,North,15.0,20.7,N/A,,Overcast,10,2013-05-25 05:35:00
1:55 AM,48.2,46.4,93,29.80,4.0,North,15.0,25.3,N/A,,Overcast,10,2013-05-25 05:55:00
2:15 AM,48.2,44.6,87,29.81,7.0,North,12.7,-,0.01,,Overcast,10,2013-05-25 06:15:00
2:35 AM,48.2,42.8,82,29.80,5.0,NNE,16.1,21.9,0.01,,Overcast,20,2013-05-25 06:35:00
2:55 AM,48.2,42.8,82,29.79,4.0,NNE,18.4,26.5,0.01,,Overcast,20,2013-05-25 06:55:00
3:15 AM,46.4,42.8,87,29.79,3.0,North,10.4,17.3,N/A,,Overcast,10,2013-05-25 07:15:00
3:35 AM,46.4,42.8,87,29.78,6.0,NNE,19.6,26.5,N/A,,Overcast,20,2013-05-25 07:35:00
3:55 AM,46.4,42.8,87,29.78,7.0,North,12.7,-,N/A,,Overcast,10,2013-05-25 07:55:00
4:15 AM,46.4,42.8,87,29.78,5.0,North,17.3,-,N/A,,Overcast,10,2013-05-25 08:15:00
4:35 AM,46.4,42.8,87,29.78,6.0,North,13.8,-,N/A,,Overcast,10,2013-05-25 08:35:00
4:55 AM,46.4,42.8,87,29.77,4.0,North,18.4,24.2,N/A,,Overcast,10,2013-05-25 08:55:00
5:15 AM,46.4,42.8,87,29.76,3.0,NNE,19.6,25.3,N/A,,Overcast,30,2013-05-25 09:15:00
5:35 AM,46.4,42.8,87,29.75,2.5,North,12.7,20.7,0.01,,Overcast,360,2013-05-25 09:35:00
6:15 AM,46.4,42.8,87,29.75,3.0,North,15.0,19.6,N/A,,Overcast,360,2013-05-25 10:15:00
6:35 AM,46.4,44.6,93,29.75,4.0,North,11.5,20.7,N/A,,Overcast,360,2013-05-25 10:35:00
6:55 AM,46.4,42.8,87,29.77,5.0,NNW,9.2,-,N/A,,Overcast,340,2013-05-25 10:55:00
7:15 AM,46.4,42.8,87,29.76,8.0,North,12.7,17.3,N/A,,Overcast,360,2013-05-25 11:15:00
7:35 AM,46.4,44.6,93,29.76,6.0,North,11.5,17.3,N/A,,Overcast,360,2013-05-25 11:35:00
7:55 AM,48.2,42.8,82,29.76,8.0,North,13.8,18.4,0.13,,Overcast,360,2013-05-25 11:55:00
8:15 AM,48.2,44.6,87,29.75,10.0,North,13.8,20.7,0.01,,Overcast,360,2013-05-25 12:15:00
8:35 AM,48.2,44.6,87,29.75,8.0,North,13.8,21.9,0.02,,Overcast,360,2013-05-25 12:35:00
8:55 AM,48.2,44.6,87,29.75,8.0,North,15.0,-,0.04,,Overcast,360,2013-05-25 12:55:00
9:15 AM,48.2,44.6,87,29.74,10.0,North,17.3,24.2,0.01,,Overcast,360,2013-05-25 13:15:00
9:35 AM,48.2,44.6,87,29.74,7.0,North,17.3,27.6,0.01,,Overcast,360,2013-05-25 13:35:00
9:55 AM,48.2,44.6,87,29.74,8.0,North,11.5,17.3,0.03,,Overcast,360,2013-05-25 13:55:00
10:15 AM,48.2,44.6,87,29.74,5.0,North,16.1,25.3,0.01,,Overcast,10,2013-05-25 14:15:00
10:35 AM,48.2,44.6,87,29.74,5.0,North,11.5,21.9,0.01,,Overcast,360,2013-05-25 14:35:00
10:55 AM,48.2,44.6,87,29.74,3.0,North,15.0,23.0,0.02,,Overcast,360,2013-05-25 14:55:00
11:15 AM,48.2,44.6,87,29.72,5.0,North,18.4,23.0,N/A,,Overcast,10,2013-05-25 15:15:00
11:35 AM,48.2,44.6,87,29.72,5.0,North,15.0,23.0,N/A,,Overcast,360,2013-05-25 15:35:00
11:55 AM,50.0,44.6,82,29.70,10.0,North,18.4,31.1,N/A,,Overcast,360,2013-05-25 15:55:00
12:15 PM,51.8,44.6,76,29.70,10.0,NNE,20.7,31.1,N/A,,Overcast,20,2013-05-25 16:15:00
12:35 PM,51.8,44.6,76,29.69,10.0,North,23.0,28.8,N/A,,Overcast,10,2013-05-25 16:35:00
12:55 PM,50.0,44.6,82,29.70,10.0,North,17.3,26.5,N/A,,Overcast,10,2013-05-25 16:55:00
1:15 PM,51.8,42.8,71,29.69,8.0,North,17.3,25.3,N/A,,Overcast,360,2013-05-25 17:15:00
1:35 PM,50.0,44.6,82,29.69,3.0,North,18.4,27.6,N/A,,Overcast,10,2013-05-25 17:35:00
1:55 PM,50.0,46.4,87,29.69,3.0,NNE,20.7,25.3,N/A,,Overcast,20,2013-05-25 17:55:00
2:15 PM,50.0,44.6,82,29.70,2.5,North,20.7,26.5,N/A,,Overcast,10,2013-05-25 18:15:00
2:35 PM,51.8,46.4,82,29.71,4.0,NNE,16.1,20.7,N/A,,Overcast,20,2013-05-25 18:35:00
2:55 PM,50.0,46.4,87,29.70,2.5,North,18.4,25.3,N/A,,Overcast,10,2013-05-25 18:55:00
3:15 PM,48.2,44.6,87,29.69,2.0,North,19.6,25.3,0.01,,Overcast,10,2013-05-25 19:15:00
3:35 PM,50.0,46.4,87,29.69,3.0,North,16.1,19.6,0.01,,Overcast,10,2013-05-25 19:35:00
3:55 PM,48.2,44.6,87,29.69,3.0,North,17.3,25.3,0.01,,Overcast,10,2013-05-25 19:55:00
4:15 PM,48.2,44.6,87,29.69,3.0,North,20.7,29.9,N/A,,Overcast,10,2013-05-25 20:15:00
4:35 PM,48.2,44.6,87,29.67,2.5,North,23.0,29.9,N/A,,Overcast,10,2013-05-25 20:35:00
4:55 PM,48.2,44.6,87,29.67,5.0,North,26.5,36.8,N/A,,Mostly Cloudy,10,2013-05-25 20:55:00
5:15 PM,48.2,42.8,82,29.67,6.0,North,21.9,31.1,N/A,,Overcast,360,2013-05-25 21:15:00
5:35 PM,48.2,42.8,82,29.68,3.0,North,17.3,29.9,N/A,,Overcast,10,2013-05-25 21:35:00
5:55 PM,48.2,42.8,82,29.67,7.0,North,21.9,26.5,0.05,,Mostly Cloudy,360,2013-05-25 21:55:00
6:15 PM,46.4,42.8,87,29.67,5.0,North,21.9,29.9,0.11,,Overcast,360,2013-05-25 22:15:00
6:35 PM,46.4,42.8,87,29.67,3.0,North,18.4,29.9,0.12,,Overcast,360,2013-05-25 22:35:00
6:55 PM,46.4,42.8,87,29.67,7.0,North,21.9,29.9,0.12,,Overcast,360,2013-05-25 22:55:00
7:15 PM,46.4,42.8,87,29.67,3.0,North,15.0,23.0,N/A,,Overcast,360,2013-05-25 23:15:00
7:35 PM,46.4,41.0,81,29.68,1.8,NNW,13.8,23.0,0.01,,Overcast,340,2013-05-25 23:35:00
7:55 PM,46.4,42.8,87,29.68,1.5,NNW,13.8,23.0,0.01,,Overcast,340,2013-05-25 23:55:00
8:15 PM,46.4,41.0,81,29.68,2.0,NNW,11.5,21.9,N/A,,Overcast,340,2013-05-26 00:15:00
8:35 PM,44.6,33.8,66,29.68,3.0,NW,12.7,18.4,N/A,,Overcast,320,2013-05-26 00:35:00
8:55 PM,44.6,33.8,66,29.67,10.0,NW,9.2,-,0.01,,Overcast,320,2013-05-26 00:55:00
9:15 PM,44.6,33.8,66,29.67,7.0,NW,11.5,18.4,N/A,,Overcast,320,2013-05-26 01:15:00
9:35 PM,44.6,33.8,66,29.67,5.0,NW,13.8,18.4,0.01,,Overcast,320,2013-05-26 01:35:00
9:55 PM,42.8,35.6,76,29.68,7.0,NNW,10.4,19.6,0.01,,Overcast,330,2013-05-26 01:55:00
10:15 PM,42.8,39.2,87,29.67,7.0,NNW,10.4,18.4,N/A,,Overcast,330,2013-05-26 02:15:00
10:35 PM,42.8,37.4,81,29.67,3.0,NW,11.5,17.3,N/A,,Overcast,320,2013-05-26 02:35:00
10:55 PM,42.8,39.2,87,29.66,3.0,WNW,11.5,19.6,N/A,,Overcast,300,2013-05-26 02:55:00
11:15 PM,42.8,37.4,81,29.66,2.5,NW,9.2,16.1,N/A,,Overcast,310,2013-05-26 03:15:00
11:35 PM,42.8,37.4,81,29.66,3.0,NW,10.4,-,N/A,,Overcast,320,2013-05-26 03:35:00
11:55 PM,42.8,35.6,76,29.65,3.0,NW,10.4,-,N/A,,Overcast,310,2013-05-26 03:55:00